Time,TemperatureF,DewpointF,PressureIn,WindDirection,WindDirectionDegrees,WindSpeedMPH,WindSpeedGustMPH,Humidity,HourlyPrecipIn,Conditions,Clouds,dailyrainin,SolarRadiationWatts/m^2,SoftwareType,DateUTC
2013-04-21 00:04:00,60.6,39.1,30.11,SE,135,6.9,6.9,45,0.00,CLR,,0.00,0.0,WeatherDisplay:10.37,2013-04-21 05:04:00,
2013-04-21 00:09:00,60.6,39.1,30.11,SE,135,6.9,6.9,45,0.00,CLR,,0.00,0.0,WeatherDisplay:10.37,2013-04-21 05:09:00,
2013-04-21 00:14:00,60.1,39.2,30.11,ESE,112,5.8,5.8,46,0.00,CLR,,0.00,0.0,WeatherDisplay:10.37,2013-04-21 05:14:00,
2013-04-21 00:20:00,60.1,39.2,30.11,SE,135,5.8,5.8,46,0.00,CLR,,0.00,0.0,WeatherDisplay:10.37,2013-04-21 05:20:00,
2013-04-21 00:25:00,59.9,39.1,30.11,SE,135,4.8,5.2,46,0.00,CLR,,0.00,0.0,WeatherDisplay:10.37,2013-04-21 05:25:00,
2013-04-21 00:30:00,59.9,39.1,30.11,ESE,112,5.8,5.8,46,0.00,CLR,,0.00,0.0,WeatherDisplay:10.37,2013-04-21 05:30:00,
2013-04-21 00:35:00,59.9,39.1,30.11,ESE,112,7.1,7.1,46,0.00,CLR,,0.00,0.0,WeatherDisplay:10.37,2013-04-21 05:35:00,
2013-04-21 00:41:00,59.7,38.9,30.11,SE,135,8.1,8.1,46,0.00,CLR,,0.00,0.0,WeatherDisplay:10.37,2013-04-21 05:41:00,
2013-04-21 00:46:00,59.5,38.7,30.11,ESE,112,6.9,6.9,46,0.00,CLR,,0.00,0.0,WeatherDisplay:10.37,2013-04-21 05:46:00,
2013-04-21 00:51:00,59.5,38.7,30.11,SE,135,7.4,7.4,46,0.00,CLR,,0.00,0.0,WeatherDisplay:10.37,2013-04-21 05:51:00,
2013-04-21 00:56:00,59.5,38.7,30.11,SSE,158,5.8,5.8,46,0.00,CLR,,0.00,0.0,WeatherDisplay:10.37,2013-04-21 05:56:00,
2013-04-21 01:01:00,59.4,39.1,30.11,East,90,6.9,6.9,47,0.00,CLR,,0.00,0.0,WeatherDisplay:10.37,2013-04-21 06:01:00,
2013-04-21 01:06:00,59.2,38.9,30.11,South,180,9.2,9.2,47,0.00,CLR,,0.00,0.0,WeatherDisplay:10.37,2013-04-21 06:06:00,
2013-04-21 01:11:00,59.2,39.5,30.12,NNE,22,6.9,6.9,48,0.00,CLR,,0.00,0.0,WeatherDisplay:10.37,2013-04-21 06:11:00,
2013-04-21 01:17:00,59.0,39.9,30.12,SSE,158,6.9,6.9,49,0.00,CLR,,0.00,0.0,WeatherDisplay:10.37,2013-04-21 06:17:00,
2013-04-21 01:22:00,59.2,40.5,30.12,South,180,8.1,8.1,50,0.00,CLR,,0.00,0.0,WeatherDisplay:10.37,2013-04-21 06:22:00,
2013-04-21 01:27:00,59.2,41.1,30.12,SE,135,9.2,9.2,51,0.00,CLR,,0.00,0.0,WeatherDisplay:10.37,2013-04-21 06:27:00,
2013-04-21 01:32:00,58.8,41.2,30.12,South,180,8.1,8.1,52,0.00,CLR,,0.00,0.0,WeatherDisplay:10.37,2013-04-21 06:32:00,
2013-04-21 01:38:00,58.8,41.7,30.12,ENE,68,5.8,6.6,53,0.00,CLR,,0.00,0.0,WeatherDisplay:10.37,2013-04-21 06:38:00,
2013-04-21 01:43:00,58.5,41.4,30.12,SSE,158,10.4,10.4,53,0.00,CLR,,0.00,0.0,WeatherDisplay:10.37,2013-04-21 06:43:00,
2013-04-21 01:48:00,58.5,41.4,30.12,SE,135,9.2,9.2,53,0.00,CLR,,0.00,0.0,WeatherDisplay:10.37,2013-04-21 06:48:00,
2013-04-21 01:53:00,58.1,41.5,30.11,SE,135,3.5,4.9,54,0.00,CLR,,0.00,0.0,WeatherDisplay:10.37,2013-04-21 06:53:00,
2013-04-21 01:58:00,57.9,41.4,30.11,South,180,4.6,4.6,54,0.00,CLR,,0.00,0.0,WeatherDisplay:10.37,2013-04-21 06:58:00,
2013-04-21 02:03:00,57.7,41.7,30.11,SSE,158,9.2,9.2,55,0.00,CLR,,0.00,0.0,WeatherDisplay:10.37,2013-04-21 07:03:00,
2013-04-21 02:09:00,57.7,41.7,30.12,SE,135,5.8,5.8,55,0.00,CLR,,0.00,0.0,WeatherDisplay:10.37,2013-04-21 07:09:00,
2013-04-21 02:14:00,57.7,42.1,30.12,SE,135,2.3,4.4,56,0.00,CLR,,0.00,0.0,WeatherDisplay:10.37,2013-04-21 07:14:00,
2013-04-21 02:19:00,57.4,41.8,30.12,SE,135,9.2,9.2,56,0.00,CLR,,0.00,0.0,WeatherDisplay:10.37,2013-04-21 07:19:00,
2013-04-21 02:24:00,57.2,41.6,30.12,South,180,8.1,8.1,56,0.00,CLR,,0.00,0.0,WeatherDisplay:10.37,2013-04-21 07:24:00,
2013-04-21 02:29:00,57.2,41.6,30.11,South,180,4.6,4.6,56,0.00,CLR,,0.00,0.0,WeatherDisplay:10.37,2013-04-21 07:29:00,
2013-04-21 02:34:00,57.0,41.9,30.11,SSE,158,4.7,4.7,57,0.00,CLR,,0.00,0.0,WeatherDisplay:10.37,2013-04-21 07:34:00,
2013-04-21 02:39:00,56.8,42.2,30.11,South,180,4.6,4.6,58,0.00,CLR,,0.00,0.0,WeatherDisplay:10.37,2013-04-21 07:39:00,
2013-04-21 02:45:00,56.8,42.2,30.11,SSW,202,3.6,3.6,58,0.00,CLR,,0.00,0.0,WeatherDisplay:10.37,2013-04-21 07:45:00,
2013-04-21 02:50:00,56.7,42.5,30.12,SW,225,4.6,4.6,59,0.00,CLR,,0.00,0.0,WeatherDisplay:10.37,2013-04-21 07:50:00,
2013-04-21 02:55:00,56.5,42.3,30.12,ENE,68,2.6,3.0,59,0.00,CLR,,0.00,0.0,WeatherDisplay:10.37,2013-04-21 07:55:00,
2013-04-21 03:00:00,56.5,42.8,30.12,South,180,5.8,5.8,60,0.00,CLR,,0.00,0.0,WeatherDisplay:10.37,2013-04-21 08:00:00,
2013-04-21 03:06:00,56.3,42.6,30.12,SSE,158,5.8,5.8,60,0.00,CLR,,0.00,0.0,WeatherDisplay:10.37,2013-04-21 08:06:00,
2013-04-21 03:11:00,56.3,42.6,30.14,SSE,158,5.8,5.8,60,0.00,CLR,,0.00,0.0,WeatherDisplay:10.37,2013-04-21 08:11:00,
2013-04-21 03:16:00,56.3,43.0,30.14,West,270,4.6,4.6,61,0.00,CLR,,0.00,0.0,WeatherDisplay:10.37,2013-04-21 08:16:00,
2013-04-21 03:21:00,56.1,42.8,30.14,West,270,5.8,5.8,61,0.00,CLR,,0.00,0.0,WeatherDisplay:10.37,2013-04-21 08:21:00,
2013-04-21 03:26:00,55.9,42.7,30.14,South,180,8.1,8.1,61,0.00,CLR,,0.00,0.0,WeatherDisplay:10.37,2013-04-21 08:26:00,
2013-04-21 03:32:00,55.8,42.9,30.13,SSE,158,3.5,3.5,62,0.00,CLR,,0.00,0.0,WeatherDisplay:10.37,2013-04-21 08:32:00,
2013-04-21 03:37:00,55.9,43.1,30.13,South,180,4.6,4.6,62,0.00,CLR,,0.00,0.0,WeatherDisplay:10.37,2013-04-21 08:37:00,
2013-04-21 03:42:00,55.8,42.9,30.13,SSE,158,4.6,4.6,62,0.00,CLR,,0.00,0.0,WeatherDisplay:10.37,2013-04-21 08:42:00,
2013-04-21 03:47:00,55.8,42.9,30.13,SSE,158,4.6,4.6,62,0.00,CLR,,0.00,0.0,WeatherDisplay:10.37,2013-04-21 08:47:00,
2013-04-21 03:53:00,55.6,42.8,30.13,South,180,6.9,6.9,62,0.00,CLR,,0.00,0.0,WeatherDisplay:10.37,2013-04-21 08:53:00,
2013-04-21 03:58:00,55.4,43.0,30.13,SSE,158,4.6,4.6,63,0.00,CLR,,0.00,0.0,WeatherDisplay:10.37,2013-04-21 08:58:00,
2013-04-21 04:03:00,55.6,43.2,30.13,SSE,158,3.5,3.5,63,0.00,CLR,,0.00,0.0,WeatherDisplay:10.37,2013-04-21 09:03:00,
2013-04-21 04:08:00,55.2,42.8,30.13,SE,135,6.9,6.9,63,0.00,CLR,,0.00,0.0,WeatherDisplay:10.37,2013-04-21 09:08:00,
2013-04-21 04:13:00,55.0,43.1,30.13,ESE,112,4.6,4.6,64,0.00,CLR,,0.00,0.0,WeatherDisplay:10.37,2013-04-21 09:13:00,
2013-04-21 04:18:00,55.2,43.2,30.13,ESE,112,4.6,4.6,64,0.00,CLR,,0.00,0.0,WeatherDisplay:10.37,2013-04-21 09:18:00,
2013-04-21 04:24:00,55.0,43.1,30.13,South,180,6.9,6.9,64,0.00,CLR,,0.00,0.0,WeatherDisplay:10.37,2013-04-21 09:24:00,
2013-04-21 04:29:00,55.0,43.1,30.13,SSE,158,5.8,5.8,64,0.00,CLR,,0.00,0.0,WeatherDisplay:10.37,2013-04-21 09:29:00,
2013-04-21 04:34:00,54.9,42.9,30.13,South,180,4.6,4.6,64,0.00,CLR,,0.00,0.0,WeatherDisplay:10.37,2013-04-21 09:34:00,
2013-04-21 04:40:00,54.9,42.9,30.13,SE,135,4.6,4.6,64,0.00,CLR,,0.00,0.0,WeatherDisplay:10.37,2013-04-21 09:40:00,
2013-04-21 04:45:00,54.9,42.9,30.13,SE,135,3.5,3.5,64,0.00,CLR,,0.00,0.0,WeatherDisplay:10.37,2013-04-21 09:45:00,
2013-04-21 04:50:00,54.9,42.9,30.13,SSE,158,4.6,4.6,64,0.00,CLR,,0.00,0.0,WeatherDisplay:10.37,2013-04-21 09:50:00,
2013-04-21 04:55:00,54.7,42.7,30.13,SE,135,5.8,5.8,64,0.00,CLR,,0.00,0.0,WeatherDisplay:10.37,2013-04-21 09:55:00,
2013-04-21 05:00:00,54.5,42.6,30.13,SE,135,3.9,3.9,64,0.00,CLR,,0.00,0.0,WeatherDisplay:10.37,2013-04-21 10:00:00,
2013-04-21 05:05:00,54.3,42.8,30.13,SE,135,3.5,3.5,65,0.00,CLR,,0.00,0.0,WeatherDisplay:10.37,2013-04-21 10:05:00,
2013-04-21 05:10:00,54.3,42.8,30.14,SE,135,3.5,3.5,65,0.00,CLR,,0.00,0.0,WeatherDisplay:10.37,2013-04-21 10:10:00,
2013-04-21 05:16:00,54.1,42.6,30.14,ENE,68,3.5,3.5,65,0.00,CLR,,0.00,0.0,WeatherDisplay:10.37,2013-04-21 10:16:00,
2013-04-21 05:21:00,54.1,42.6,30.14,South,180,5.8,5.8,65,0.00,CLR,,0.00,0.0,WeatherDisplay:10.37,2013-04-21 10:21:00,
2013-04-21 05:26:00,54.1,42.6,30.14,SE,135,3.5,3.5,65,0.00,CLR,,0.00,0.0,WeatherDisplay:10.37,2013-04-21 10:26:00,
2013-04-21 05:31:00,54.1,43.0,30.15,SSE,158,3.5,3.5,66,0.00,CLR,,0.00,0.0,WeatherDisplay:10.37,2013-04-21 10:31:00,
2013-04-21 05:36:00,54.0,42.9,30.15,East,90,3.5,3.5,66,0.00,CLR,,0.00,0.0,WeatherDisplay:10.37,2013-04-21 10:36:00,
2013-04-21 05:41:00,54.1,43.0,30.15,ESE,112,4.6,4.6,66,0.00,CLR,,0.00,0.0,WeatherDisplay:10.37,2013-04-21 10:41:00,
2013-04-21 05:46:00,54.0,42.9,30.15,ESE,112,3.5,3.5,66,0.00,CLR,,0.00,0.0,WeatherDisplay:10.37,2013-04-21 10:46:00,
2013-04-21 05:51:00,53.8,43.1,30.14,WSW,248,4.8,4.8,67,0.00,CLR,,0.00,0.0,WeatherDisplay:10.37,2013-04-21 10:51:00,
2013-04-21 05:57:00,53.8,43.1,30.14,ESE,112,5.2,5.2,67,0.00,CLR,,0.00,0.0,WeatherDisplay:10.37,2013-04-21 10:57:00,
2013-04-21 06:02:00,53.8,43.1,30.14,SE,135,4.6,4.6,67,0.00,CLR,,0.00,0.0,WeatherDisplay:10.37,2013-04-21 11:02:00,
2013-04-21 06:07:00,53.8,43.1,30.14,SE,135,3.5,3.5,67,0.00,CLR,,0.00,0.0,WeatherDisplay:10.37,2013-04-21 11:07:00,
2013-04-21 06:12:00,53.6,43.3,30.14,WSW,248,3.5,3.5,68,0.00,CLR,,0.00,0.0,WeatherDisplay:10.37,2013-04-21 11:12:00,
2013-04-21 06:17:00,53.6,43.3,30.14,ESE,112,4.8,4.8,68,0.00,CLR,,0.00,0.0,WeatherDisplay:10.37,2013-04-21 11:17:00,
2013-04-21 06:22:00,53.8,43.5,30.14,ESE,112,5.8,5.8,68,0.00,OVC,,0.00,0.0,WeatherDisplay:10.37,2013-04-21 11:22:00,
2013-04-21 06:27:00,53.6,43.3,30.14,ESE,112,3.5,3.5,68,0.00,OVC,,0.00,0.0,WeatherDisplay:10.37,2013-04-21 11:27:00,
2013-04-21 06:33:00,53.4,43.1,30.14,SE,135,4.6,4.6,68,0.00,OVC,,0.00,0.0,WeatherDisplay:10.37,2013-04-21 11:33:00,
2013-04-21 06:38:00,53.4,43.1,30.14,ESE,112,4.3,4.3,68,0.00,OVC,,0.00,0.0,WeatherDisplay:10.37,2013-04-21 11:38:00,
2013-04-21 06:43:00,53.4,43.1,30.14,SE,135,3.5,3.5,68,0.00,OVC,,0.00,0.0,WeatherDisplay:10.37,2013-04-21 11:43:00,
2013-04-21 06:48:00,53.2,42.9,30.15,ESE,112,2.3,3.0,68,0.00,OVC,,0.00,0.0,WeatherDisplay:10.37,2013-04-21 11:48:00,
2013-04-21 06:53:00,53.4,43.5,30.15,SE,135,3.5,3.5,69,0.00,OVC,,0.00,0.0,WeatherDisplay:10.37,2013-04-21 11:53:00,
2013-04-21 06:59:00,53.1,43.2,30.15,ESE,112,4.6,4.6,69,0.00,OVC,,0.00,0.0,WeatherDisplay:10.37,2013-04-21 11:59:00,
2013-04-21 07:04:00,53.1,43.2,30.15,East,90,2.3,2.9,69,0.00,OVC,,0.00,0.0,WeatherDisplay:10.37,2013-04-21 12:04:00,
2013-04-21 07:09:00,52.9,43.0,30.17,ESE,112,3.5,3.5,69,0.00,OVC,,0.00,0.0,WeatherDisplay:10.37,2013-04-21 12:09:00,
2013-04-21 07:14:00,53.1,43.5,30.17,SE,135,2.3,2.8,70,0.00,OVC,,0.00,0.0,WeatherDisplay:10.37,2013-04-21 12:14:00,
2013-04-21 07:19:00,52.9,43.4,30.17,ESE,112,4.6,4.6,70,0.00,OVC,,0.00,0.0,WeatherDisplay:10.37,2013-04-21 12:19:00,
2013-04-21 07:24:00,52.7,43.2,30.17,ESE,112,4.6,4.6,70,0.00,OVC,,0.00,0.0,WeatherDisplay:10.37,2013-04-21 12:24:00,
2013-04-21 07:30:00,52.7,43.2,30.17,East,90,5.8,5.8,70,0.00,OVC,,0.00,0.0,WeatherDisplay:10.37,2013-04-21 12:30:00,
2013-04-21 07:35:00,52.9,43.4,30.17,SSE,158,3.5,3.7,70,0.00,OVC,,0.00,0.0,WeatherDisplay:10.37,2013-04-21 12:35:00,
2013-04-21 07:40:00,52.9,43.4,30.17,ESE,112,2.6,2.9,70,0.00,OVC,,0.00,0.0,WeatherDisplay:10.37,2013-04-21 12:40:00,
2013-04-21 07:45:00,52.9,43.4,30.17,ESE,112,3.5,3.5,70,0.00,OVC,,0.00,0.0,WeatherDisplay:10.37,2013-04-21 12:45:00,
2013-04-21 07:50:00,53.2,43.7,30.19,SE,135,3.8,3.8,70,0.00,OVC,,0.00,0.0,WeatherDisplay:10.37,2013-04-21 12:50:00,
2013-04-21 07:56:00,53.4,43.9,30.19,SE,135,4.9,4.9,70,0.00,OVC,,0.00,0.0,WeatherDisplay:10.37,2013-04-21 12:56:00,
2013-04-21 08:01:00,53.4,44.2,30.19,ESE,112,5.8,5.8,71,0.00,OVC,,0.00,0.0,WeatherDisplay:10.37,2013-04-21 13:01:00,
2013-04-21 08:06:00,53.6,44.4,30.19,ESE,112,3.5,3.6,71,0.00,OVC,,0.00,20.0,WeatherDisplay:10.37,2013-04-21 13:06:00,
2013-04-21 08:11:00,53.8,44.6,30.18,SE,135,6.9,6.9,71,0.00,OVC,,0.00,20.0,WeatherDisplay:10.37,2013-04-21 13:11:00,
2013-04-21 08:17:00,53.6,44.4,30.18,ESE,112,5.8,5.8,71,0.00,OVC,,0.00,10.0,WeatherDisplay:10.37,2013-04-21 13:17:00,
2013-04-21 08:22:00,53.8,44.6,30.18,ESE,112,3.5,3.7,71,0.00,OVC,,0.00,10.0,WeatherDisplay:10.37,2013-04-21 13:22:00,
2013-04-21 08:27:00,54.1,44.9,30.18,SSE,158,2.3,2.3,71,0.00,OVC,,0.00,0.0,WeatherDisplay:10.37,2013-04-21 13:27:00,
2013-04-21 08:32:00,54.3,44.7,30.22,ESE,112,3.5,3.5,70,0.00,OVC,,0.00,200.0,WeatherDisplay:10.37,2013-04-21 13:32:00,
2013-04-21 08:37:00,54.7,45.1,30.22,ESE,112,2.9,2.9,70,0.00,OVC,,0.00,350.0,WeatherDisplay:10.37,2013-04-21 13:37:00,
2013-04-21 08:42:00,55.0,45.4,30.22,ESE,112,3.5,3.5,70,0.00,OVC,,0.00,490.0,WeatherDisplay:10.37,2013-04-21 13:42:00,
2013-04-21 08:47:00,55.0,45.4,30.22,ESE,112,2.3,2.5,70,0.00,OVC,,0.00,580.0,WeatherDisplay:10.37,2013-04-21 13:47:00,
2013-04-21 08:52:00,55.6,45.9,30.24,SE,135,4.7,4.7,70,0.00,OVC,,0.00,410.0,WeatherDisplay:10.37,2013-04-21 13:52:00,
2013-04-21 08:57:00,55.9,46.3,30.24,East,90,6.0,6.0,70,0.00,OVC,,0.00,90.0,WeatherDisplay:10.37,2013-04-21 13:57:00,
2013-04-21 09:02:00,56.3,46.3,30.24,ESE,112,5.8,5.8,69,0.00,OVC,,0.00,10.0,WeatherDisplay:10.37,2013-04-21 14:02:00,
2013-04-21 09:08:00,56.3,46.3,30.24,ESE,112,4.6,4.6,69,0.00,OVC,,0.00,0.0,WeatherDisplay:10.37,2013-04-21 14:08:00,
2013-04-21 09:13:00,56.5,46.8,30.22,SSE,158,5.8,5.8,70,0.00,OVC,,0.00,0.0,WeatherDisplay:10.37,2013-04-21 14:13:00,
2013-04-21 09:18:00,56.7,46.6,30.22,East,90,4.4,4.4,69,0.00,OVC,,0.00,0.0,WeatherDisplay:10.37,2013-04-21 14:18:00,
2013-04-21 09:23:00,56.8,46.8,30.22,ESE,112,5.8,5.8,69,0.00,OVC,,0.00,0.0,WeatherDisplay:10.37,2013-04-21 14:23:00,
2013-04-21 09:28:00,57.2,47.1,30.23,ESE,112,5.8,5.8,69,0.00,OVC,,0.00,0.0,WeatherDisplay:10.37,2013-04-21 14:28:00,
2013-04-21 09:33:00,57.6,47.5,30.23,ESE,112,6.9,6.9,69,0.00,OVC,,0.00,0.0,WeatherDisplay:10.37,2013-04-21 14:33:00,
2013-04-21 09:39:00,58.1,48.0,30.23,ESE,112,4.6,4.6,69,0.00,OVC,,0.00,0.0,WeatherDisplay:10.37,2013-04-21 14:39:00,
2013-04-21 09:44:00,58.3,48.2,30.23,SE,135,2.6,3.8,69,0.00,OVC,,0.00,0.0,WeatherDisplay:10.37,2013-04-21 14:44:00,
2013-04-21 09:49:00,58.8,48.7,30.22,ESE,112,6.9,6.9,69,0.00,OVC,,0.00,0.0,WeatherDisplay:10.37,2013-04-21 14:49:00,
2013-04-21 09:54:00,59.2,48.6,30.22,NW,315,3.5,4.9,68,0.00,OVC,,0.00,0.0,WeatherDisplay:10.37,2013-04-21 14:54:00,
2013-04-21 09:59:00,59.4,48.8,30.22,SE,135,6.9,6.9,68,0.00,OVC,,0.00,10.0,WeatherDisplay:10.37,2013-04-21 14:59:00,
2013-04-21 10:04:00,59.7,48.7,30.22,SSE,158,5.8,5.8,67,0.00,OVC,,0.00,10.0,WeatherDisplay:10.37,2013-04-21 15:04:00,
2013-04-21 10:09:00,59.9,48.9,30.22,South,180,5.8,5.8,67,0.00,OVC,,0.00,10.0,WeatherDisplay:10.37,2013-04-21 15:09:00,
2013-04-21 10:15:00,60.4,49.4,30.22,SE,135,9.2,9.2,67,0.00,OVC,,0.00,10.0,WeatherDisplay:10.37,2013-04-21 15:15:00,
2013-04-21 10:20:00,60.6,49.6,30.22,South,180,6.9,6.9,67,0.00,OVC,,0.00,0.0,WeatherDisplay:10.37,2013-04-21 15:20:00,
2013-04-21 10:25:00,61.0,49.9,30.22,SSE,158,4.6,4.6,67,0.00,OVC,,0.00,10.0,WeatherDisplay:10.37,2013-04-21 15:25:00,
2013-04-21 10:30:00,61.3,50.3,30.22,South,180,2.3,4.1,67,0.00,OVC,,0.00,0.0,WeatherDisplay:10.37,2013-04-21 15:30:00,
2013-04-21 10:35:00,61.5,50.1,30.22,South,180,5.8,5.8,66,0.00,OVC,,0.00,0.0,WeatherDisplay:10.37,2013-04-21 15:35:00,
2013-04-21 10:40:00,61.5,50.1,30.22,SE,135,6.9,6.9,66,0.00,OVC,,0.00,0.0,WeatherDisplay:10.37,2013-04-21 15:40:00,
2013-04-21 10:45:00,61.7,50.2,30.22,SE,135,6.9,6.9,66,0.00,OVC,,0.00,0.0,WeatherDisplay:10.37,2013-04-21 15:45:00,
2013-04-21 10:51:00,62.1,50.2,30.22,ESE,112,6.9,6.9,65,0.00,OVC,,0.00,0.0,WeatherDisplay:10.37,2013-04-21 15:51:00,
2013-04-21 10:56:00,62.2,50.3,30.22,SSE,158,2.3,4.7,65,0.00,OVC,,0.00,0.0,WeatherDisplay:10.37,2013-04-21 15:56:00,
2013-04-21 11:01:00,62.8,50.8,30.22,ESE,112,10.4,10.4,65,0.00,OVC,,0.00,0.0,WeatherDisplay:10.37,2013-04-21 16:01:00,
2013-04-21 11:06:00,63.1,50.8,30.22,SE,135,4.6,4.8,64,0.00,OVC,,0.00,0.0,WeatherDisplay:10.37,2013-04-21 16:06:00,
2013-04-21 11:11:00,63.0,50.6,30.22,SSW,202,3.6,4.7,64,0.00,OVC,,0.00,0.0,WeatherDisplay:10.37,2013-04-21 16:11:00,
2013-04-21 11:16:00,63.1,50.3,30.22,SSE,158,4.6,4.6,63,0.00,OVC,,0.00,0.0,WeatherDisplay:10.37,2013-04-21 16:16:00,
2013-04-21 11:21:00,63.3,50.9,30.22,WSW,248,4.6,4.6,64,0.00,OVC,,0.00,0.0,WeatherDisplay:10.37,2013-04-21 16:21:00,
2013-04-21 11:26:00,63.7,50.8,30.22,SE,135,9.2,9.2,63,0.00,OVC,,0.00,0.0,WeatherDisplay:10.37,2013-04-21 16:26:00,
2013-04-21 11:32:00,63.7,50.4,30.22,ESE,112,5.8,5.8,62,0.00,OVC,,0.00,0.0,WeatherDisplay:10.37,2013-04-21 16:32:00,
2013-04-21 11:37:00,63.7,50.8,30.22,South,180,2.3,4.8,63,0.00,OVC,,0.00,0.0,WeatherDisplay:10.37,2013-04-21 16:37:00,
2013-04-21 11:42:00,63.9,50.6,30.22,SE,135,2.3,3.5,62,0.00,OVC,,0.00,0.0,WeatherDisplay:10.37,2013-04-21 16:42:00,
2013-04-21 11:47:00,64.4,51.1,30.22,SSE,158,10.4,10.4,62,0.00,OVC,,0.00,0.0,WeatherDisplay:10.37,2013-04-21 16:47:00,
2013-04-21 11:52:00,64.2,50.9,30.21,SSE,158,6.9,6.9,62,0.00,OVC,,0.00,0.0,WeatherDisplay:10.37,2013-04-21 16:52:00,
2013-04-21 11:57:00,64.4,51.1,30.21,SSE,158,9.2,9.2,62,0.00,OVC,,0.00,0.0,WeatherDisplay:10.37,2013-04-21 16:57:00,
2013-04-21 12:03:00,64.9,51.6,30.21,SW,225,9.2,9.2,62,0.00,OVC,,0.00,0.0,WeatherDisplay:10.37,2013-04-21 17:03:00,
2013-04-21 12:08:00,64.9,51.6,30.21,SW,225,1.2,4.5,62,0.00,OVC,,0.00,0.0,WeatherDisplay:10.37,2013-04-21 17:08:00,
2013-04-21 12:13:00,65.3,51.5,30.21,SE,135,2.3,4.1,61,0.00,OVC,,0.00,0.0,WeatherDisplay:10.37,2013-04-21 17:13:00,
2013-04-21 12:19:00,65.7,51.8,30.21,SE,135,6.9,6.9,61,0.00,OVC,,0.00,0.0,WeatherDisplay:10.37,2013-04-21 17:19:00,
2013-04-21 12:24:00,65.3,51.1,30.21,SSE,158,6.9,6.9,60,0.00,OVC,,0.00,0.0,WeatherDisplay:10.37,2013-04-21 17:24:00,
2013-04-21 12:29:00,65.3,51.1,30.20,SSW,202,6.9,6.9,60,0.00,OVC,,0.00,0.0,WeatherDisplay:10.37,2013-04-21 17:29:00,
2013-04-21 12:34:00,65.7,51.4,30.20,SSE,158,6.9,6.9,60,0.00,OVC,,0.00,0.0,WeatherDisplay:10.37,2013-04-21 17:34:00,
2013-04-21 12:39:00,65.7,51.4,30.20,SSE,158,8.1,8.1,60,0.00,OVC,,0.00,0.0,WeatherDisplay:10.37,2013-04-21 17:39:00,
2013-04-21 12:45:00,65.7,51.4,30.20,South,180,4.8,4.8,60,0.00,OVC,,0.00,0.0,WeatherDisplay:10.37,2013-04-21 17:45:00,
2013-04-21 12:50:00,65.7,50.9,30.19,SW,225,3.5,3.5,59,0.00,OVC,,0.00,0.0,WeatherDisplay:10.37,2013-04-21 17:50:00,
2013-04-21 12:55:00,66.0,50.8,30.19,SSE,158,3.5,3.5,58,0.00,OVC,,0.00,0.0,WeatherDisplay:10.37,2013-04-21 17:55:00,
2013-04-21 13:00:00,66.0,51.3,30.19,SE,135,7.2,7.2,59,0.00,OVC,,0.00,0.0,WeatherDisplay:10.37,2013-04-21 18:00:00,
2013-04-21 13:05:00,66.2,51.4,30.19,SE,135,8.1,8.1,59,0.00,OVC,,0.00,0.0,WeatherDisplay:10.37,2013-04-21 18:05:00,
2013-04-21 13:10:00,66.6,51.8,30.18,NE,45,0.0,3.5,59,0.00,OVC,,0.00,0.0,WeatherDisplay:10.37,2013-04-21 18:10:00,
2013-04-21 13:16:00,66.7,51.5,30.18,SE,135,6.9,6.9,58,0.00,OVC,,0.00,0.0,WeatherDisplay:10.37,2013-04-21 18:16:00,
2013-04-21 13:21:00,67.1,51.8,30.18,SE,135,5.8,5.8,58,0.00,OVC,,0.00,0.0,WeatherDisplay:10.37,2013-04-21 18:21:00,
2013-04-21 13:26:00,67.8,52.0,30.18,SE,135,9.4,9.4,57,0.00,OVC,,0.00,0.0,WeatherDisplay:10.37,2013-04-21 18:26:00,
2013-04-21 13:31:00,67.8,51.5,30.18,SW,225,9.2,9.2,56,0.00,OVC,,0.00,0.0,WeatherDisplay:10.37,2013-04-21 18:31:00,
2013-04-21 13:36:00,68.0,51.2,30.18,ESE,112,8.1,8.1,55,0.00,OVC,,0.00,0.0,WeatherDisplay:10.37,2013-04-21 18:36:00,
2013-04-21 13:41:00,68.2,51.4,30.18,SE,135,5.8,5.8,55,0.00,OVC,,0.00,0.0,WeatherDisplay:10.37,2013-04-21 18:41:00,
2013-04-21 13:46:00,68.2,51.4,30.18,East,90,4.6,4.6,55,0.00,OVC,,0.00,0.0,WeatherDisplay:10.37,2013-04-21 18:46:00,
2013-04-21 13:51:00,68.5,51.2,30.17,SSE,158,9.2,9.2,54,0.00,OVC,,0.00,0.0,WeatherDisplay:10.37,2013-04-21 18:51:00,
2013-04-21 13:56:00,68.5,51.2,30.17,SE,135,9.2,9.2,54,0.00,OVC,,0.00,0.0,WeatherDisplay:10.37,2013-04-21 18:56:00,
2013-04-21 14:01:00,68.9,51.1,30.17,ENE,68,6.9,6.9,53,0.00,OVC,,0.00,0.0,WeatherDisplay:10.37,2013-04-21 19:01:00,
2013-04-21 14:07:00,68.9,51.6,30.17,SSE,158,3.5,3.9,54,0.00,OVC,,0.00,0.0,WeatherDisplay:10.37,2013-04-21 19:07:00,
2013-04-21 14:12:00,68.9,51.6,30.16,SSW,202,5.8,5.8,54,0.00,OVC,,0.00,0.0,WeatherDisplay:10.37,2013-04-21 19:12:00,
2013-04-21 14:17:00,69.1,51.2,30.16,SSE,158,6.9,6.9,53,0.00,OVC,,0.00,0.0,WeatherDisplay:10.37,2013-04-21 19:17:00,
2013-04-21 14:22:00,69.1,51.2,30.16,ESE,112,4.6,4.6,53,0.00,OVC,,0.00,0.0,WeatherDisplay:10.37,2013-04-21 19:22:00,
2013-04-21 14:27:00,69.4,52.1,30.16,South,180,3.5,3.6,54,0.00,OVC,,0.00,10.0,WeatherDisplay:10.37,2013-04-21 19:27:00,
2013-04-21 14:32:00,70.0,52.1,30.15,South,180,9.2,9.2,53,0.00,OVC,,0.00,0.0,WeatherDisplay:10.37,2013-04-21 19:32:00,
2013-04-21 14:37:00,69.8,51.4,30.15,SSE,158,6.9,6.9,52,0.00,OVC,,0.00,0.0,WeatherDisplay:10.37,2013-04-21 19:37:00,
2013-04-21 14:42:00,70.0,51.5,30.15,SSE,158,6.9,6.9,52,0.00,OVC,,0.00,0.0,WeatherDisplay:10.37,2013-04-21 19:42:00,
2013-04-21 14:48:00,69.8,51.4,30.15,ESE,112,2.6,3.0,52,0.00,OVC,,0.00,0.0,WeatherDisplay:10.37,2013-04-21 19:48:00,
2013-04-21 14:53:00,70.2,51.7,30.15,South,180,5.8,5.8,52,0.00,OVC,,0.00,0.0,WeatherDisplay:10.37,2013-04-21 19:53:00,
2013-04-21 14:58:00,70.5,52.0,30.15,WSW,248,3.5,4.1,52,0.00,OVC,,0.00,0.0,WeatherDisplay:10.37,2013-04-21 19:58:00,
2013-04-21 15:03:00,70.5,52.0,30.15,SW,225,4.6,4.6,52,0.00,OVC,,0.00,0.0,WeatherDisplay:10.37,2013-04-21 20:03:00,
2013-04-21 15:08:00,70.5,51.5,30.14,SSE,158,4.6,4.6,51,0.00,OVC,,0.00,0.0,WeatherDisplay:10.37,2013-04-21 20:08:00,
2013-04-21 15:14:00,70.7,51.7,30.14,SE,135,3.5,3.5,51,0.00,OVC,,0.00,0.0,WeatherDisplay:10.37,2013-04-21 20:14:00,
2013-04-21 15:19:00,70.7,51.7,30.14,SE,135,6.9,6.9,51,0.00,OVC,,0.00,0.0,WeatherDisplay:10.37,2013-04-21 20:19:00,
2013-04-21 15:24:00,70.9,51.8,30.14,SSE,158,4.6,4.6,51,0.00,OVC,,0.00,0.0,WeatherDisplay:10.37,2013-04-21 20:24:00,
2013-04-21 15:29:00,71.1,52.0,30.13,SE,135,2.6,3.7,51,0.00,OVC,,0.00,0.0,WeatherDisplay:10.37,2013-04-21 20:29:00,
2013-04-21 15:34:00,71.1,52.0,30.13,SE,135,8.1,8.1,51,0.00,OVC,,0.00,0.0,WeatherDisplay:10.37,2013-04-21 20:34:00,
2013-04-21 15:39:00,71.1,52.0,30.13,WSW,248,5.8,5.8,51,0.00,OVC,,0.00,0.0,WeatherDisplay:10.37,2013-04-21 20:39:00,
2013-04-21 15:44:00,71.4,52.3,30.13,ESE,112,2.3,3.1,51,0.00,OVC,,0.00,0.0,WeatherDisplay:10.37,2013-04-21 20:44:00,
2013-04-21 15:50:00,71.6,52.5,30.13,SE,135,0.0,2.6,51,0.00,OVC,,0.00,0.0,WeatherDisplay:10.37,2013-04-21 20:50:00,
2013-04-21 15:55:00,71.6,52.0,30.13,SW,225,5.8,5.8,50,0.00,OVC,,0.00,0.0,WeatherDisplay:10.37,2013-04-21 20:55:00,
2013-04-21 16:00:00,71.6,52.0,30.13,South,180,6.9,6.9,50,0.00,OVC,,0.00,0.0,WeatherDisplay:10.37,2013-04-21 21:00:00,
2013-04-21 16:05:00,71.6,52.0,30.13,SE,135,6.9,6.9,50,0.00,OVC,,0.00,0.0,WeatherDisplay:10.37,2013-04-21 21:05:00,
2013-04-21 16:10:00,72.1,52.5,30.11,ESE,112,10.4,10.4,50,0.00,OVC,,0.00,0.0,WeatherDisplay:10.37,2013-04-21 21:10:00,
2013-04-21 16:15:00,72.0,52.3,30.11,ESE,112,5.8,5.8,50,0.00,OVC,,0.00,0.0,WeatherDisplay:10.37,2013-04-21 21:15:00,
2013-04-21 16:20:00,71.8,52.1,30.11,East,90,8.2,8.2,50,0.00,OVC,,0.00,0.0,WeatherDisplay:10.37,2013-04-21 21:20:00,
2013-04-21 16:25:00,71.6,52.0,30.11,East,90,6.9,6.9,50,0.00,OVC,,0.00,0.0,WeatherDisplay:10.37,2013-04-21 21:25:00,
2013-04-21 16:31:00,71.6,52.0,30.11,South,180,3.5,3.5,50,0.00,OVC,,0.00,0.0,WeatherDisplay:10.37,2013-04-21 21:31:00,
2013-04-21 16:36:00,71.6,52.0,30.11,SSE,158,4.9,4.9,50,0.00,OVC,,0.00,0.0,WeatherDisplay:10.37,2013-04-21 21:36:00,
2013-04-21 16:41:00,71.4,51.8,30.11,SSE,158,4.6,4.6,50,0.00,OVC,,0.00,0.0,WeatherDisplay:10.37,2013-04-21 21:41:00,
2013-04-21 16:46:00,71.4,52.3,30.11,ESE,112,9.9,9.9,51,0.00,OVC,,0.00,0.0,WeatherDisplay:10.37,2013-04-21 21:46:00,
2013-04-21 16:51:00,71.2,52.2,30.11,SSW,202,6.9,6.9,51,0.00,OVC,,0.00,0.0,WeatherDisplay:10.37,2013-04-21 21:51:00,
2013-04-21 16:56:00,71.1,52.0,30.11,ESE,112,5.8,5.8,51,0.00,OVC,,0.00,0.0,WeatherDisplay:10.37,2013-04-21 21:56:00,
2013-04-21 17:02:00,71.4,52.3,30.11,SE,135,5.2,5.2,51,0.00,OVC,,0.00,0.0,WeatherDisplay:10.37,2013-04-21 22:02:00,
2013-04-21 17:07:00,70.9,51.8,30.11,SSE,158,4.6,4.6,51,0.00,OVC,,0.00,0.0,WeatherDisplay:10.37,2013-04-21 22:07:00,
2013-04-21 17:12:00,71.1,52.5,30.11,ESE,112,4.6,4.6,52,0.00,OVC,,0.00,0.0,WeatherDisplay:10.37,2013-04-21 22:12:00,
2013-04-21 17:18:00,70.9,52.4,30.11,SSE,158,4.6,4.6,52,0.00,OVC,,0.00,0.0,WeatherDisplay:10.37,2013-04-21 22:18:00,
2013-04-21 17:23:00,70.9,52.4,30.11,ESE,112,4.6,4.6,52,0.00,OVC,,0.00,0.0,WeatherDisplay:10.37,2013-04-21 22:23:00,
2013-04-21 17:28:00,70.7,52.2,30.11,SW,225,2.3,3.5,52,0.00,OVC,,0.00,0.0,WeatherDisplay:10.37,2013-04-21 22:28:00,
2013-04-21 17:33:00,70.7,52.2,30.11,ESE,112,6.9,6.9,52,0.00,OVC,,0.00,0.0,WeatherDisplay:10.37,2013-04-21 22:33:00,
2013-04-21 17:38:00,70.5,52.0,30.11,SE,135,4.6,4.6,52,0.00,OVC,,0.00,0.0,WeatherDisplay:10.37,2013-04-21 22:38:00,
2013-04-21 17:43:00,70.7,52.2,30.11,SE,135,6.9,6.9,52,0.00,OVC,,0.00,0.0,WeatherDisplay:10.37,2013-04-21 22:43:00,
2013-04-21 17:48:00,70.7,52.2,30.10,ESE,112,8.1,8.1,52,0.00,OVC,,0.00,0.0,WeatherDisplay:10.37,2013-04-21 22:48:00,
2013-04-21 17:53:00,70.7,52.2,30.10,ESE,112,4.6,4.6,52,0.00,OVC,,0.00,0.0,WeatherDisplay:10.37,2013-04-21 22:53:00,
2013-04-21 17:59:00,70.7,52.2,30.10,SSE,158,6.9,6.9,52,0.00,OVC,,0.00,0.0,WeatherDisplay:10.37,2013-04-21 22:59:00,
2013-04-21 18:04:00,70.3,51.9,30.10,SE,135,6.9,6.9,52,0.00,OVC,,0.00,0.0,WeatherDisplay:10.37,2013-04-21 23:04:00,
2013-04-21 18:09:00,70.3,51.9,30.09,SSE,158,4.6,4.6,52,0.00,OVC,,0.00,0.0,WeatherDisplay:10.37,2013-04-21 23:09:00,
2013-04-21 18:14:00,70.3,51.9,30.09,SSE,158,6.9,6.9,52,0.00,OVC,,0.00,0.0,WeatherDisplay:10.37,2013-04-21 23:14:00,
2013-04-21 18:19:00,70.3,51.9,30.09,NNE,22,6.9,6.9,52,0.00,OVC,,0.00,0.0,WeatherDisplay:10.37,2013-04-21 23:19:00,
2013-04-21 18:25:00,70.3,52.4,30.09,SE,135,6.9,6.9,53,0.00,OVC,,0.00,0.0,WeatherDisplay:10.37,2013-04-21 23:25:00,
2013-04-21 18:30:00,70.3,52.4,30.11,ESE,112,6.9,6.9,53,0.00,OVC,,0.00,0.0,WeatherDisplay:10.37,2013-04-21 23:30:00,
2013-04-21 18:35:00,70.3,52.4,30.11,ESE,112,6.9,6.9,53,0.00,OVC,,0.00,0.0,WeatherDisplay:10.37,2013-04-21 23:35:00,
2013-04-21 18:40:00,70.3,52.4,30.11,ESE,112,3.5,4.0,53,0.00,OVC,,0.00,0.0,WeatherDisplay:10.37,2013-04-21 23:40:00,
2013-04-21 18:45:00,70.2,52.2,30.11,East,90,6.9,6.9,53,0.00,OVC,,0.00,0.0,WeatherDisplay:10.37,2013-04-21 23:45:00,
2013-04-21 18:51:00,70.2,52.2,30.10,SE,135,8.1,8.1,53,0.00,OVC,,0.00,0.0,WeatherDisplay:10.37,2013-04-21 23:51:00,
2013-04-21 18:56:00,70.2,52.2,30.10,ESE,112,4.6,4.6,53,0.00,OVC,,0.00,0.0,WeatherDisplay:10.37,2013-04-21 23:56:00,
2013-04-21 19:01:00,70.2,52.2,30.10,SE,135,5.8,5.8,53,0.00,OVC,,0.00,0.0,WeatherDisplay:10.37,2013-04-22 00:01:00,
2013-04-21 19:06:00,70.2,52.2,30.10,SE,135,4.9,4.9,53,0.00,OVC,,0.00,0.0,WeatherDisplay:10.37,2013-04-22 00:06:00,
2013-04-21 19:11:00,70.2,52.2,30.11,East,90,4.7,4.7,53,0.00,OVC,,0.00,0.0,WeatherDisplay:10.37,2013-04-22 00:11:00,
2013-04-21 19:16:00,70.0,52.6,30.11,ESE,112,3.9,3.9,54,0.00,OVC,,0.00,0.0,WeatherDisplay:10.37,2013-04-22 00:16:00,
2013-04-21 19:22:00,70.0,52.6,30.11,ESE,112,5.8,5.8,54,0.00,OVC,,0.00,0.0,WeatherDisplay:10.37,2013-04-22 00:22:00,
2013-04-21 19:27:00,69.8,52.4,30.11,ESE,112,5.8,5.8,54,0.00,OVC,,0.00,0.0,WeatherDisplay:10.37,2013-04-22 00:27:00,
2013-04-21 19:32:00,70.0,52.6,30.11,ESE,112,6.9,6.9,54,0.00,OVC,,0.00,0.0,WeatherDisplay:10.37,2013-04-22 00:32:00,
2013-04-21 19:37:00,70.0,52.6,30.11,SE,135,3.5,4.7,54,0.00,OVC,,0.00,0.0,WeatherDisplay:10.37,2013-04-22 00:37:00,
2013-04-21 19:43:00,70.0,52.6,30.11,SE,135,7.2,7.2,54,0.00,OVC,,0.00,0.0,WeatherDisplay:10.37,2013-04-22 00:43:00,
2013-04-21 19:48:00,69.8,52.4,30.11,ESE,112,4.6,4.6,54,0.00,OVC,,0.00,0.0,WeatherDisplay:10.37,2013-04-22 00:48:00,
2013-04-21 19:53:00,69.4,52.1,30.11,ESE,112,3.5,3.7,54,0.00,OVC,,0.00,0.0,WeatherDisplay:10.37,2013-04-22 00:53:00,
2013-04-21 19:58:00,69.1,52.2,30.11,ESE,112,4.6,4.6,55,0.00,OVC,,0.00,0.0,WeatherDisplay:10.37,2013-04-22 00:58:00,
2013-04-21 20:03:00,69.1,52.2,30.11,ESE,112,4.6,4.6,55,0.00,OVC,,0.00,0.0,WeatherDisplay:10.37,2013-04-22 01:03:00,
2013-04-21 20:08:00,68.9,52.1,30.13,East,90,4.6,4.6,55,0.00,OVC,,0.00,0.0,WeatherDisplay:10.37,2013-04-22 01:08:00,
2013-04-21 20:14:00,68.5,52.2,30.13,ESE,112,4.6,4.6,56,0.00,OVC,,0.00,0.0,WeatherDisplay:10.37,2013-04-22 01:14:00,
2013-04-21 20:19:00,68.4,52.0,30.13,ESE,112,4.6,4.6,56,0.00,OVC,,0.00,0.0,WeatherDisplay:10.37,2013-04-22 01:19:00,
2013-04-21 20:24:00,68.2,52.4,30.13,ESE,112,4.6,4.6,57,0.00,OVC,,0.00,0.0,WeatherDisplay:10.37,2013-04-22 01:24:00,
2013-04-21 20:29:00,68.0,52.2,30.12,ESE,112,4.6,4.6,57,0.00,OVC,,0.00,0.0,WeatherDisplay:10.37,2013-04-22 01:29:00,
2013-04-21 20:34:00,67.8,52.0,30.12,ESE,112,3.5,3.5,57,0.00,CLR,,0.00,0.0,WeatherDisplay:10.37,2013-04-22 01:34:00,
2013-04-21 20:39:00,67.6,51.9,30.12,ESE,112,3.5,3.5,57,0.00,CLR,,0.00,0.0,WeatherDisplay:10.37,2013-04-22 01:39:00,
2013-04-21 20:44:00,67.6,52.3,30.12,ESE,112,3.5,3.5,58,0.00,CLR,,0.00,10.0,WeatherDisplay:10.37,2013-04-22 01:44:00,
2013-04-21 20:49:00,67.5,52.2,30.13,ESE,112,3.8,3.8,58,0.00,CLR,,0.00,10.0,WeatherDisplay:10.37,2013-04-22 01:49:00,
2013-04-21 20:54:00,67.3,52.0,30.13,ESE,112,4.6,4.6,58,0.00,CLR,,0.00,10.0,WeatherDisplay:10.37,2013-04-22 01:54:00,
2013-04-21 21:00:00,67.1,52.3,30.13,ESE,112,4.6,4.6,59,0.00,CLR,,0.00,0.0,WeatherDisplay:10.37,2013-04-22 02:00:00,
2013-04-21 21:05:00,67.1,52.3,30.13,ESE,112,4.6,4.6,59,0.00,CLR,,0.00,30.0,WeatherDisplay:10.37,2013-04-22 02:05:00,
2013-04-21 21:10:00,66.9,52.1,30.15,ESE,112,3.5,3.5,59,0.00,CLR,,0.00,30.0,WeatherDisplay:10.37,2013-04-22 02:10:00,
2013-04-21 21:15:00,66.7,52.0,30.15,ESE,112,2.3,3.3,59,0.00,CLR,,0.00,40.0,WeatherDisplay:10.37,2013-04-22 02:15:00,
2013-04-21 21:20:00,66.6,52.2,30.15,ESE,112,4.6,4.6,60,0.00,CLR,,0.00,40.0,WeatherDisplay:10.37,2013-04-22 02:20:00,
2013-04-21 21:25:00,66.6,52.2,30.15,ESE,112,3.6,3.6,60,0.00,CLR,,0.00,30.0,WeatherDisplay:10.37,2013-04-22 02:25:00,
2013-04-21 21:31:00,66.4,52.1,30.15,ESE,112,4.6,4.6,60,0.00,CLR,,0.00,40.0,WeatherDisplay:10.37,2013-04-22 02:31:00,
2013-04-21 21:36:00,66.4,52.1,30.15,ESE,112,3.7,3.7,60,0.00,CLR,,0.00,0.0,WeatherDisplay:10.37,2013-04-22 02:36:00,
2013-04-21 21:41:00,66.0,52.2,30.15,ESE,112,4.6,4.6,61,0.00,CLR,,0.00,30.0,WeatherDisplay:10.37,2013-04-22 02:41:00,
2013-04-21 21:46:00,66.0,52.2,30.15,ESE,112,2.3,3.1,61,0.00,CLR,,0.00,30.0,WeatherDisplay:10.37,2013-04-22 02:46:00,
2013-04-21 21:51:00,65.7,51.8,30.15,ESE,112,3.5,3.5,61,0.00,CLR,,0.00,30.0,WeatherDisplay:10.37,2013-04-22 02:51:00,
2013-04-21 21:57:00,65.5,51.7,30.15,ESE,112,3.5,3.5,61,0.00,CLR,,0.00,30.0,WeatherDisplay:10.37,2013-04-22 02:57:00,
2013-04-21 22:02:00,65.3,51.9,30.15,East,90,3.5,3.5,62,0.00,CLR,,0.00,30.0,WeatherDisplay:10.37,2013-04-22 03:02:00,
2013-04-21 22:07:00,65.1,51.8,30.15,East,90,2.3,2.3,62,0.00,CLR,,0.00,30.0,WeatherDisplay:10.37,2013-04-22 03:07:00,
2013-04-21 22:12:00,65.1,51.8,30.15,East,90,3.1,3.1,62,0.00,CLR,,0.00,20.0,WeatherDisplay:10.37,2013-04-22 03:12:00,
2013-04-21 22:18:00,64.9,52.0,30.15,ESE,112,2.3,2.3,63,0.00,CLR,,0.00,20.0,WeatherDisplay:10.37,2013-04-22 03:18:00,
2013-04-21 22:23:00,64.8,51.9,30.15,ESE,112,2.3,2.3,63,0.00,CLR,,0.00,20.0,WeatherDisplay:10.37,2013-04-22 03:23:00,
2013-04-21 22:28:00,64.6,51.7,30.16,ESE,112,2.4,2.4,63,0.00,CLR,,0.00,20.0,WeatherDisplay:10.37,2013-04-22 03:28:00,
2013-04-21 22:33:00,64.4,52.0,30.16,ESE,112,2.3,2.3,64,0.00,CLR,,0.00,20.0,WeatherDisplay:10.37,2013-04-22 03:33:00,
2013-04-21 22:38:00,64.2,51.8,30.16,ESE,112,2.8,2.8,64,0.00,CLR,,0.00,20.0,WeatherDisplay:10.37,2013-04-22 03:38:00,
2013-04-21 22:43:00,64.2,51.8,30.16,ESE,112,2.5,2.5,64,0.00,CLR,,0.00,20.0,WeatherDisplay:10.37,2013-04-22 03:43:00,
2013-04-21 22:49:00,64.0,51.6,30.16,ESE,112,2.3,2.3,64,0.00,CLR,,0.00,30.0,WeatherDisplay:10.37,2013-04-22 03:49:00,
2013-04-21 22:54:00,63.9,51.9,30.16,ESE,112,2.3,2.3,65,0.00,CLR,,0.00,30.0,WeatherDisplay:10.37,2013-04-22 03:54:00,
2013-04-21 22:59:00,63.7,51.7,30.16,ESE,112,2.3,2.3,65,0.00,CLR,,0.00,30.0,WeatherDisplay:10.37,2013-04-22 03:59:00,
2013-04-21 23:01:00,63.7,51.7,30.16,SE,135,2.3,2.3,65,0.00,CLR,,0.00,0.0,WeatherDisplay:10.37,2013-04-22 04:01:00,
2013-04-21 23:02:00,63.9,51.9,30.16,East,90,2.3,2.3,65,0.00,CLR,,0.00,20.0,WeatherDisplay:10.37,2013-04-22 04:02:00,
2013-04-21 23:07:00,63.7,51.7,30.16,East,90,2.3,2.3,65,0.00,CLR,,0.00,30.0,WeatherDisplay:10.37,2013-04-22 04:07:00,
2013-04-21 23:12:00,63.3,51.8,30.16,ESE,112,2.5,2.5,66,0.00,CLR,,0.00,20.0,WeatherDisplay:10.37,2013-04-22 04:12:00,
2013-04-21 23:17:00,63.5,51.9,30.16,East,90,3.5,3.5,66,0.00,CLR,,0.00,30.0,WeatherDisplay:10.37,2013-04-22 04:17:00,
2013-04-21 23:22:00,63.1,51.6,30.16,ESE,112,2.3,2.3,66,0.00,CLR,,0.00,20.0,WeatherDisplay:10.37,2013-04-22 04:22:00,
2013-04-21 23:27:00,63.0,51.4,30.16,ESE,112,2.3,2.3,66,0.00,CLR,,0.00,20.0,WeatherDisplay:10.37,2013-04-22 04:27:00,
2013-04-21 23:32:00,63.0,51.4,30.15,East,90,2.3,2.3,66,0.00,CLR,,0.00,20.0,WeatherDisplay:10.37,2013-04-22 04:32:00,
2013-04-21 23:38:00,62.8,51.2,30.15,ESE,112,3.5,3.5,66,0.00,CLR,,0.00,0.0,WeatherDisplay:10.37,2013-04-22 04:38:00,
2013-04-21 23:43:00,62.8,51.7,30.15,ESE,112,3.5,3.5,67,0.00,CLR,,0.00,30.0,WeatherDisplay:10.37,2013-04-22 04:43:00,
2013-04-21 23:48:00,62.8,51.7,30.15,SE,135,2.3,2.6,67,0.00,CLR,,0.00,30.0,WeatherDisplay:10.37,2013-04-22 04:48:00,
2013-04-21 23:53:00,62.4,51.3,30.15,ESE,112,4.6,4.6,67,0.00,CLR,,0.00,30.0,WeatherDisplay:10.37,2013-04-22 04:53:00,
2013-04-21 23:59:00,62.4,51.3,30.15,East,90,3.5,3.5,67,0.00,CLR,,0.00,0.0,WeatherDisplay:10.37,2013-04-22 04:59:00,